#timestamp,LO_Frequency,Hit,StdDev 
1664636415.4,286047001.6,N
1664636435.3,286047000.5,N
1664636455.1,286047000.9,N
1664636475.8,286046998.2,N
1664636495.7,286047000.6,N
1664636515.5,286047001.0,N
1664636535.4,286047000.7,N
1664636555.2,286046999.6,N
1664636575.0,286046998.3,N
1664636575.9,286046998.3,N
1664636595.8,286047001.0,N
1664636615.6,286046998.4,N
1664636635.5,286046998.7,N
1664636655.3,286047002.8,N
1664636675.1,286047000.4,N
1664636695.9,286047000.8,N
1664636715.7,286047002.5,N
1664636735.5,286047002.3,N
1664636755.4,286047002.4,N
1664636775.2,286047000.2,N
1664636795.1,286047001.8,N
1664636796.0,286047001.8,N
1664636815.8,286047001.7,N
1664636835.6,286047002.6,N
1664636855.5,286047000.3,N
1664636875.3,286047000.7,N
1664636895.1,286046999.7,N
1664636915.9,286047000.7,N
1664636935.7,286046998.6,N
1664636955.6,286047001.1,N
1664636975.4,286047002.7,N
1664636995.2,286046999.8,N
1664637015.1,286046999.9,N
1664637016.0,286046999.9,N
1664637035.8,286047002.8,N
1664637055.6,286047004.3,Y
1664637075.5,286047002.2,P
1664637095.3,286047002.7,P
1664637115.2,286047000.3,N
1664637135.9,286047000.4,N
1664637155.7,286047000.0,N
1664637175.6,286046998.1,N
1664637195.4,286047002.4,N
1664637215.2,286047002.7,N
1664637235.1,286047001.0,N
1664637236.0,286047001.0,N
1664637255.8,286047000.0,N
1664637275.7,286047002.5,N
1664637295.5,286047001.3,N
1664637315.3,286047001.8,N
1664637335.2,286046999.7,N
1664637355.9,286047002.7,N
1664637375.7,286047001.9,N
1664637395.6,286047002.8,N
1664637415.4,286047001.6,N
1664637435.2,286047002.3,N
1664637455.1,286047001.3,N
1664637456.0,286047001.3,N
1664637475.8,286047002.1,N
1664637495.7,286047002.7,N
1664637515.5,286047001.6,N
1664637535.3,286047003.2,N
1664637555.2,286047001.4,N
1664637575.0,286047002.6,N
1664637575.9,286047002.6,N
1664637595.7,286047002.7,N
1664637615.6,286047002.2,N
1664637635.4,286046999.7,N
1664637655.3,286046999.8,N
1664637675.1,286047001.0,N
1664637676.0,286047001.0,N
1664637695.8,286047000.4,N
1664637715.7,286046998.2,N
1664637735.5,286046998.5,N
1664637755.3,286047000.8,N
1664637775.2,286047000.3,N
1664637795.0,286047001.1,N
1664637795.9,286047001.1,N
1664637815.8,286047002.7,N
1664637835.6,286047000.1,N
1664637855.4,286047002.7,N
1664637875.3,286047000.1,N
1664637895.1,286047002.7,N
1664637915.8,286046999.9,N
1664637935.7,286047002.5,N
1664637955.5,286046999.9,N
1664637975.4,286046999.9,N
1664637995.2,286047000.4,N
1664638015.0,286047000.1,N
1664638015.9,286047000.1,N
1664638035.8,286047000.4,N
1664638055.6,286047001.6,N
1664638075.5,286047002.6,N
1664638095.3,286047000.2,N
1664638115.1,286047000.8,N
1664638135.9,286047000.7,N
1664638155.7,286046998.1,N
1664638175.5,286047000.0,N
1664638195.4,286047001.2,N
1664638215.2,286047000.4,N
1664638235.1,286047000.3,N
1664638236.0,286047000.3,N
1664638255.8,286047001.3,N
1664638275.6,286047002.3,N
1664638295.5,286047002.2,N
1664638315.3,286046999.8,N
1664638335.1,286046999.8,N
1664638355.9,286047000.2,N
1664638375.7,286047000.9,N
1664638395.5,286046998.1,N
1664638415.4,286047001.1,N
1664638435.2,286046999.3,N
1664638455.1,286046998.7,N
1664638456.0,286046998.7,N
1664638475.8,286046998.6,N
1664638495.6,286047000.4,N
1664638515.5,286047000.7,N
1664638535.3,286047000.9,N
1664638555.2,286047000.2,N
1664638575.9,286047000.9,N
1664638595.7,286047000.7,N
1664638615.6,286047001.1,N
1664638635.4,286047000.1,N
1664638655.2,286047002.6,N
1664638675.1,286047002.0,N
1664638676.0,286047002.0,N
1664638695.8,286047002.3,N
1664638715.7,286047000.1,N
1664638735.5,286047001.6,N
1664638755.3,286047000.2,N
1664638775.2,286047000.3,N
1664638795.0,286047002.8,N
1664638795.9,286047002.8,N
1664638815.7,286047002.4,N
1664638835.6,286047002.1,N
1664638855.4,286047000.3,N
1664638875.3,286046999.7,N
1664638895.1,286047002.4,N
1664638896.0,286047002.4,N
1664638915.8,286047002.8,N
1664638935.7,286047002.7,N
1664638955.5,286047002.3,N
1664638975.3,286047002.4,N
1664638995.2,286046999.7,N
1664639015.0,286047001.5,N
1664639015.9,286047001.5,N
1664639035.8,286047002.5,N
1664639055.6,286047001.8,N
1664639075.4,286047002.2,N
1664639095.3,286047002.6,N
1664639115.1,286047000.2,N
1664639135.9,286047004.4,Y
1664639155.7,286047000.0,P
1664639175.5,286047001.0,N
1664639195.4,286046998.5,N
1664639215.2,286047000.6,N
1664639235.0,286047000.8,N
1664639235.9,286047000.8,N
1664639255.8,286046998.5,N
1664639275.6,286046998.6,N
1664639295.4,286047000.5,N
1664639315.3,286047000.9,N
1664639335.1,286046999.7,N
1664639355.9,286047000.4,N
1664639375.7,286047000.2,N
1664639395.5,286047000.0,N
1664639415.4,286046994.9,Y
1664639435.2,286046996.1,P
1664639455.1,286046994.6,N
1664639456.0,286046994.6,N
1664639475.8,286046993.4,N
1664639495.6,286046996.4,N
1664639515.5,286046995.9,N
1664639535.3,286046997.8,N
1664639555.1,286046994.9,N
1664639575.9,286046998.0,N
1664639595.7,286046995.2,N
1664639615.6,286046995.6,N
1664639635.4,286046993.9,Y
1664639655.2,286046998.6,P
1664639675.1,286046998.5,N
1664639676.0,286046998.5,N
1664639695.8,286047000.9,N
1664639715.6,286047000.8,N
1664639735.5,286046999.9,N
1664639755.3,286047000.0,N
1664639775.2,286047000.6,N
1664639795.9,286047000.4,N
1664639815.7,286046998.9,N
1664639835.6,286046998.7,N
1664639855.4,286046999.9,N
1664639875.2,286047002.8,N
1664639895.1,286047000.0,N
1664639896.0,286047000.0,N
1664639915.8,286047000.9,N
1664639935.7,286047000.0,N
1664639955.5,286047000.7,N
1664639975.3,286047000.5,N
1664639995.2,286047000.3,N
